Temp
45 44 42 41 40 39 39 38 38 37 37 36 36 36 36 35 35 33 32 32 31 31 31 35 32 31 32 33 33 32 31 31 26 28 31 32 30 31 33 35 35 35 36
43 42 42 41 40 39 39 38 37 36 36 36 36 35 35 35 34 33 32 31 30 29 34 33 29 32 31 33 32 31 31 31 27 25 28 29 29 31 32 33 35 36 36
40 39 38 40 39 39 39 37 37 36 35 35 35 34 34 34 33 32 31 31 30 31 31 28 28 27 29 31 31 31 32 32 30 28 27 31 31 33 32 34 34 34 36
41 40 39 39 40 40 39 37 36 36 35 34 34 34 34 33 33 32 32 30 30 30 30 28 27 26 28 30 30 31 33 31 31 30 29 30 32 34 34 32 33 33 33
41 39 41 40 40 39 37 37 35 35 34 34 33 33 32 32 32 30 29 30 30 29 29 28 28 27 29 31 32 33 32 31 31 30 30 30 31 32 32 33 33 33 32
41 41 40 38 37 37 37 35 34 33 33 32 32 32 31 32 36 37 34 29 31 28 24 24 25 26 28 31 33 36 36 33 31 31 30 29 30 32 33 33 32 28 27
40 39 38 38 37 36 35 34 34 33 32 32 30 29 27 26 36 37 37 29 24 19 19 21 21 26 25 27 31 35 35 36 36 32 29 29 28 30 30 31 29 27 25
38 37 37 36 36 35 34 34 33 32 31 30 27 25 20 21 34 36 36 22 17 15 13 13 16 17 23 28 31 27 32 32 30 31 30 29 30 31 31 30 27 24 26
35 36 36 36 35 34 34 33 32 29 25 26 22 23 20 21 34 36 34 18 17 16 13 12 15 18 28 33 31 26 27 24 30 31 31 31 30 31 31 29 21 18 19
37 38 37 36 36 34 35 33 27 28 31 30 25 23 23 23 32 36 34 18 14 12 10 11 23 22 32 33 30 27 22 19 19 17 17 19 21 22 26 23 23 17 15
31 31 33 35 36 35 34 30 29 28 26 27 24 23 22 20 22 35 37 17 18 13 10 10 13 28 32 32 33 28 27 25 19 16 13 15 18 19 20 20 21 20 16
28 29 30 31 33 33 32 29 29 28 27 27 27 25 23 20 23 33 37 35 28 18 15 12 11 29 31 30 30 31 30 26 16 18 9 14 14 17 19 19 19 19 21
27 27 27 29 31 32 31 29 28 29 29 29 28 27 27 24 22 33 36 36 35 17 13 19 29 28 27 21 27 27 16 13 9 7 6 8 10 14 16 17 19 18 18
26 24 23 25 26 29 31 31 31 29 29 28 28 26 27 24 25 23 25 26 31 28 26 14 21 23 24 21 13 16 12 9 8 7 7 7 10 12 13 16 15 12 15
26 24 22 24 26 27 30 32 32 33 34 31 31 30 27 25 28 30 28 23 21 23 11 11 13 13 11 10 9 9 9 11 10 9 7 7 10 11 14 16 17 16 13
24 26 24 23 23 25 27 26 35 35 35 36 35 32 29 33 36 35 34 33 32 30 10 8 11 12 11 10 9 9 9 9 9 9 7 8 9 11 14 16 17 16 13
19 25 27 24 24 26 27 28 28 30 35 35 36 36 35 33 36 36 36 35 34 31 9 8 12 14 12 11 10 9 9 10 9 8 9 10 10 12 14 15 16 17 17
17 21 26 28 26 28 28 29 29 29 29 30 35 35 35 36 35 36 36 35 28 29 11 13 13 11 10 10 8 7 7 8 8 8 7 7 8 9 11 12 14 14 15
14 20 22 26 28 28 28 28 29 30 31 30 27 33 34 35 36 36 36 18 22 21 16 10 12 12 10 8 7 4 4 5 6 5 5 4 5 8 10 9 11 13 15
14 16 19 23 25 28 28 28 29 29 30 30 29 31 32 32 31 30 31 28 21 18 17 17 14 12 10 8 4 3 -0 2 2 2 3 6 6 8 6 8 12 10 10
9 11 15 19 24 26 28 29 29 29 29 29 29 30 32 31 31 31 30 28 25 24 20 18 15 13 12 8 5 3 2 5 4 1 3 4 7 6 6 9 7 7 7
6 9 12 16 22 24 25 28 28 28 28 28 29 28 33 31 31 31 31 27 27 26 23 20 17 16 13 12 10 7 5 5 2 3 3 2 5 5 3 4 5 5 5
6 9 10 15 17 19 23 27 27 28 28 28 29 28 27 30 30 29 29 25 24 25 20 20 17 15 13 13 13 12 10 9 9 8 7 5 5 6 6 4 3 4 4
4 6 9 12 15 18 20 25 27 27 27 28 28 29 27 29 30 30 28 22 23 24 22 20 20 18 13 12 12 10 9 7 8 9 8 7 4 3 3 2 -0 -1 2
4 7 9 10 11 15 17 21 27 27 28 28 29 29 29 28 28 31 29 27 24 22 20 21 21 19 16 14 12 10 8 11 8 6 5 5 5 4 4 3 2 -3 -2
3 3 5 9 11 13 15 17 18 26 29 29 30 30 31 30 30 31 31 28 25 22 20 21 22 20 17 16 13 11 10 11 8 8 7 7 5 3 3 1 0 1 -1
MSLP
1005.97 1006.69 1007.50 1008.39 1009.14 1009.95 1010.61 1011.26 1011.92 1012.50 1012.90 1013.23 1013.63 1013.98 1014.40 1014.74 1014.93 1015.06 1015.17 1015.32 1015.42 1015.38 1015.11 1014.76 1014.74 1014.67 1014.42 1014.13 1014.02 1013.76 1013.12 1012.54 1011.58 1008.72 1008.22 1007.19 1006.39 1005.60 1004.23 1003.33 1002.39 1001.66 1001.00
1005.64 1006.46 1007.17 1007.96 1008.67 1009.42 1010.10 1010.72 1011.35 1011.93 1012.32 1012.80 1013.24 1013.57 1013.95 1014.25 1014.45 1014.64 1014.82 1014.96 1015.02 1014.83 1014.50 1014.51 1014.56 1014.30 1013.97 1013.64 1013.52 1013.07 1012.43 1011.87 1011.43 1009.94 1007.92 1007.08 1006.27 1004.97 1003.80 1002.65 1001.36 1000.48 999.98
1005.52 1006.23 1006.89 1007.38 1007.96 1008.64 1009.32 1010.05 1010.71 1011.27 1011.83 1012.38 1012.80 1013.18 1013.51 1013.80 1014.06 1014.22 1014.38 1014.52 1014.53 1014.32 1014.19 1014.26 1014.08 1014.02 1013.68 1013.23 1013.01 1012.47 1011.72 1011.15 1010.67 1009.83 1008.01 1007.09 1005.75 1004.32 1003.00 1001.70 1000.59 999.63 999.09
1004.95 1005.58 1006.17 1006.63 1007.14 1007.74 1008.45 1009.22 1009.94 1010.55 1011.29 1011.89 1012.27 1012.60 1012.98 1013.29 1013.56 1013.81 1013.98 1014.08 1014.06 1014.01 1013.91 1013.77 1013.58 1013.55 1013.40 1012.90 1012.45 1011.75 1010.94 1010.49 1009.74 1008.88 1007.66 1006.26 1005.23 1003.48 1002.77 1001.55 1000.14 999.57 998.99
1004.41 1005.05 1005.21 1005.81 1006.44 1007.16 1007.85 1008.55 1009.34 1010.08 1010.69 1011.21 1011.74 1012.19 1012.49 1012.84 1013.14 1013.35 1013.50 1013.75 1013.72 1013.57 1013.47 1013.25 1013.03 1012.95 1012.86 1012.45 1011.79 1010.88 1010.28 1009.55 1008.81 1007.90 1007.01 1006.17 1004.84 1003.40 1002.64 1001.72 1000.75 999.91 999.31
1003.69 1003.92 1004.40 1005.16 1005.84 1006.50 1007.32 1008.10 1008.84 1009.48 1010.06 1010.66 1011.18 1011.58 1012.07 1012.39 1012.58 1012.68 1012.91 1013.18 1013.16 1013.24 1013.06 1012.90 1012.62 1012.42 1012.22 1011.91 1011.37 1010.46 1009.62 1008.90 1008.21 1007.60 1006.98 1006.40 1005.05 1003.97 1002.75 1001.84 1001.07 1000.39 999.99
1003.05 1003.26 1003.65 1004.30 1005.04 1005.75 1006.57 1007.44 1008.19 1008.86 1009.53 1010.16 1010.66 1011.13 1011.70 1011.95 1012.07 1012.14 1012.37 1012.54 1012.83 1013.01 1012.91 1012.63 1012.46 1012.14 1012.04 1011.50 1010.75 1009.80 1009.05 1008.61 1008.04 1007.65 1007.04 1006.62 1005.59 1004.54 1003.38 1002.21 1001.72 1001.48 1001.32
1002.15 1002.60 1002.96 1003.47 1004.09 1004.96 1005.82 1006.68 1007.55 1008.29 1008.93 1009.73 1010.30 1010.75 1011.42 1011.50 1011.45 1011.51 1011.84 1012.17 1012.43 1012.52 1012.57 1012.38 1012.39 1012.04 1011.53 1010.94 1010.25 1009.59 1008.64 1008.20 1007.98 1007.66 1007.30 1006.74 1006.12 1005.09 1003.93 1003.17 1002.51 1002.15 1001.79
1001.55 1001.73 1002.03 1002.58 1003.36 1004.20 1004.97 1005.72 1006.60 1007.55 1008.47 1009.18 1009.72 1010.40 1010.93 1010.85 1010.79 1011.01 1011.40 1011.96 1012.50 1012.38 1011.93 1011.90 1011.87 1011.60 1011.16 1010.49 1009.82 1009.38 1008.65 1008.18 1007.95 1007.54 1007.33 1006.92 1006.20 1005.44 1004.45 1003.56 1003.16 1002.84 1002.55
1000.51 1000.26 1000.92 1001.63 1002.25 1002.99 1003.78 1004.87 1005.82 1006.71 1007.59 1008.57 1009.28 1009.67 1009.99 1010.24 1010.39 1010.58 1010.86 1011.52 1012.02 1012.03 1011.73 1011.50 1011.11 1010.81 1010.47 1010.02 1009.67 1009.21 1008.90 1008.69 1008.42 1007.70 1007.36 1007.02 1006.42 1005.99 1005.32 1004.89 1004.22 1003.73 1003.30
1000.82 1000.43 1000.65 1000.94 1001.44 1002.01 1003.05 1004.12 1005.11 1006.19 1007.13 1008.06 1008.78 1009.27 1009.66 1009.81 1010.00 1009.97 1010.09 1010.78 1011.14 1011.46 1011.62 1011.55 1010.75 1010.28 1009.88 1009.74 1009.33 1009.21 1008.78 1008.56 1008.44 1008.37 1008.34 1007.72 1006.97 1006.71 1006.29 1005.97 1005.39 1004.75 1004.23
1001.00 1000.66 1000.62 1000.78 1001.22 1001.74 1002.51 1003.59 1004.58 1005.52 1006.56 1007.47 1008.23 1008.77 1008.99 1009.19 1009.32 1009.20 1009.28 1009.54 1009.98 1010.73 1010.92 1010.74 1010.34 1009.92 1009.77 1009.88 1009.62 1009.35 1008.91 1008.79 1008.71 1008.70 1008.78 1008.68 1008.04 1007.59 1007.27 1006.95 1006.68 1006.13 1005.37
1002.16 1001.51 1001.02 1000.95 1001.20 1001.48 1002.13 1003.13 1004.22 1004.95 1005.71 1006.54 1007.25 1007.84 1008.08 1008.36 1008.72 1008.55 1008.78 1008.99 1009.28 1010.18 1009.99 1010.08 1009.86 1009.88 1010.01 1010.25 1010.12 1009.99 1009.49 1009.32 1009.26 1009.47 1009.84 1009.51 1008.94 1008.30 1007.82 1007.46 1007.46 1007.25 1006.60
1002.81 1002.18 1001.90 1001.68 1001.68 1001.86 1002.10 1002.52 1003.12 1003.98 1004.77 1005.52 1006.23 1006.74 1007.12 1007.58 1007.84 1008.15 1008.27 1008.43 1008.78 1009.27 1009.61 1009.86 1009.91 1009.88 1010.22 1010.28 1010.67 1010.67 1009.95 1009.83 1009.82 1009.85 1009.84 1009.81 1009.04 1008.59 1008.17 1007.90 1008.20 1008.17 1007.79
1003.32 1002.68 1002.38 1002.25 1002.11 1002.01 1002.13 1002.26 1002.40 1002.55 1002.83 1003.74 1004.43 1005.12 1005.88 1006.47 1006.34 1006.76 1007.34 1008.06 1008.58 1009.10 1009.93 1010.17 1010.28 1010.27 1010.47 1010.87 1011.28 1011.08 1010.52 1010.15 1010.19 1010.06 1010.12 1010.13 1009.78 1009.46 1009.01 1008.64 1008.86 1008.87 1008.84
1003.99 1003.34 1002.97 1002.66 1002.39 1002.22 1002.28 1002.52 1002.34 1002.43 1002.65 1003.06 1003.58 1004.07 1004.55 1004.89 1005.14 1005.77 1006.40 1007.17 1007.81 1008.57 1009.54 1010.07 1010.23 1010.18 1010.63 1010.77 1011.44 1011.43 1011.10 1010.69 1010.73 1010.48 1010.47 1010.30 1009.99 1009.85 1009.76 1009.58 1009.62 1009.81 1009.85
1004.49 1004.15 1003.42 1002.81 1002.17 1002.22 1002.41 1002.45 1002.52 1002.52 1002.58 1002.75 1002.90 1003.27 1003.55 1003.98 1004.56 1004.74 1005.46 1006.40 1007.18 1007.97 1008.72 1009.31 1009.53 1009.66 1010.02 1010.35 1010.82 1011.26 1011.26 1010.95 1010.65 1010.78 1010.75 1010.93 1010.48 1010.12 1010.08 1010.21 1010.19 1010.42 1010.55
1006.09 1005.04 1003.58 1003.06 1001.75 1001.40 1001.98 1002.11 1002.08 1002.28 1002.10 1001.94 1002.13 1002.37 1002.89 1003.30 1003.96 1004.30 1004.86 1005.96 1006.74 1007.31 1007.87 1008.45 1008.65 1009.19 1009.67 1009.91 1010.34 1010.96 1011.14 1011.13 1011.03 1011.08 1010.97 1011.38 1011.00 1010.82 1010.95 1011.04 1010.93 1010.96 1011.22
1006.40 1004.48 1003.94 1003.02 1001.31 1000.58 1000.93 1001.80 1001.67 1001.66 1001.62 1001.40 1001.33 1001.73 1002.23 1002.46 1003.07 1003.92 1004.38 1004.99 1005.66 1006.54 1007.19 1007.73 1007.77 1008.16 1009.09 1009.40 1009.79 1010.49 1011.07 1011.05 1011.12 1011.23 1011.22 1011.51 1011.53 1011.33 1011.48 1011.77 1011.94 1011.89 1011.90
1005.86 1005.31 1004.62 1002.99 1001.62 1000.38 1000.47 1001.26 1001.13 1001.15 1001.24 1000.93 1000.57 1000.66 1001.26 1001.98 1002.23 1002.69 1003.31 1004.10 1004.64 1005.28 1005.79 1006.36 1007.12 1007.55 1008.13 1008.86 1009.51 1010.17 1010.82 1011.08 1011.18 1011.42 1011.33 1011.61 1011.66 1011.80 1012.16 1012.28 1012.53 1012.85 1013.21
1005.93 1005.45 1004.38 1003.54 1001.79 1000.59 1000.00 1000.71 1000.60 1000.08 1000.06 1000.01 999.56 1000.25 1000.49 1000.57 1000.88 1001.47 1002.22 1002.90 1003.12 1003.82 1004.63 1005.22 1005.99 1006.86 1007.24 1007.93 1008.84 1009.67 1010.31 1010.71 1010.94 1011.33 1011.35 1011.61 1011.64 1012.11 1012.46 1012.73 1013.22 1013.67 1014.15
1006.26 1005.82 1004.79 1003.41 1001.89 1000.39 999.97 1000.09 1000.10 999.48 998.48 999.02 999.68 999.83 999.98 1000.17 1000.35 1000.62 1000.93 1001.43 1002.09 1002.16 1002.85 1004.04 1004.94 1005.70 1006.04 1006.70 1007.68 1008.64 1009.41 1010.19 1010.71 1010.90 1011.16 1011.58 1011.77 1012.24 1012.65 1013.07 1013.65 1014.27 1014.85
1005.53 1005.51 1004.85 1002.79 1001.67 1000.30 999.88 999.01 999.28 998.65 998.14 997.98 999.40 999.43 999.10 999.47 999.47 999.86 1000.15 1000.60 1000.92 1001.46 1002.05 1002.98 1003.90 1004.95 1005.18 1005.71 1006.57 1007.22 1008.15 1008.89 1009.60 1010.21 1010.71 1011.30 1011.69 1012.08 1012.62 1013.24 1013.85 1014.54 1015.20
1005.04 1004.56 1004.21 1002.20 1001.41 1000.41 999.44 998.89 998.92 997.65 997.28 997.15 998.52 998.02 997.75 998.24 998.50 999.04 999.42 999.88 1000.19 1000.67 1001.07 1001.93 1002.71 1003.56 1004.32 1004.96 1005.71 1006.56 1007.23 1008.03 1008.79 1009.55 1010.15 1010.72 1011.39 1012.05 1012.78 1013.32 1014.07 1014.87 1015.52
1004.32 1003.41 1002.85 1002.49 1001.45 1000.25 999.10 998.70 997.40 996.48 996.21 996.80 997.16 996.85 996.94 997.38 997.59 997.90 998.17 998.75 999.04 999.95 1000.51 1001.01 1001.59 1002.51 1003.08 1003.90 1004.82 1005.87 1006.86 1007.55 1008.17 1009.10 1010.07 1010.62 1011.15 1011.80 1012.64 1013.37 1014.10 1015.15 1015.95
1003.52 1003.18 1002.70 1002.21 1000.14 999.50 998.50 998.02 997.28 996.25 995.83 996.13 995.96 995.69 995.66 996.08 996.40 996.70 996.89 997.58 998.26 998.97 999.68 1000.19 1000.73 1001.51 1002.06 1003.15 1004.18 1005.17 1006.31 1007.09 1007.83 1008.65 1009.60 1010.40 1011.10 1011.83 1012.60 1013.44 1014.12 1014.99 1015.95
Wind_Speed
11 10 9 9 9 8 8 7 8 7 7 7 7 6 6 6 5 4 3 3 3 4 5 6 4 6 6 6 6 8 9 9 11 17 12 12 16 16 16 15 14 13 12
8 8 9 9 9 10 9 9 8 8 6 7 6 6 6 6 5 5 4 4 4 5 5 4 6 5 8 7 7 10 10 10 11 17 16 13 15 18 17 18 14 12 11
8 8 8 10 11 11 11 10 9 8 7 7 7 7 6 6 5 5 5 5 5 5 3 5 6 5 8 7 8 9 8 9 10 11 15 12 14 14 15 14 14 13 9
10 10 10 11 12 12 11 11 10 9 8 7 7 7 6 6 5 5 5 5 5 3 5 5 5 5 8 9 9 11 10 10 9 9 11 13 12 15 10 10 10 3 4
10 10 13 11 11 10 11 10 9 9 8 8 7 6 6 5 4 6 4 5 5 5 5 5 5 6 15 13 9 10 9 9 8 8 10 11 12 14 12 8 8 6 2
11 14 10 10 11 12 10 10 10 9 8 8 8 7 7 5 10 10 7 5 5 4 5 4 5 7 9 16 17 20 15 9 10 8 7 11 13 13 9 9 6 4 4
11 10 11 12 12 12 11 11 11 11 8 9 7 7 7 5 11 11 12 4 4 4 5 4 4 5 8 9 15 17 14 12 9 7 8 9 12 13 11 9 4 3 3
12 11 11 12 13 11 12 12 10 8 11 8 8 7 5 6 13 14 13 4 4 4 5 4 4 6 7 9 11 8 8 4 4 6 6 8 9 12 9 5 3 2 1
9 12 13 13 13 13 14 13 10 9 6 6 5 7 8 6 14 13 9 4 4 6 4 3 4 5 12 16 10 7 8 4 6 10 11 12 14 18 17 6 4 3 3
13 15 12 14 15 15 14 13 6 6 8 7 7 7 8 7 12 13 9 3 4 3 4 4 6 4 14 13 8 7 7 5 6 6 6 8 10 12 18 9 6 2 2
5 4 8 12 13 13 12 8 10 8 6 7 6 5 6 6 7 13 13 4 4 3 3 3 3 7 11 12 14 6 7 4 4 3 4 4 5 8 8 9 10 6 2
4 5 6 8 8 9 12 9 10 10 9 8 7 4 5 6 11 13 14 12 8 4 4 3 4 6 9 11 10 13 9 3 2 3 3 4 4 6 6 7 10 10 8
7 5 2 5 7 9 12 11 9 9 8 8 7 6 7 5 5 15 14 12 11 4 3 4 4 4 5 5 10 9 5 2 2 3 2 3 2 2 3 4 7 7 12
10 4 2 2 3 4 5 8 9 9 8 7 8 7 6 4 5 5 4 4 9 6 4 1 1 2 3 3 3 5 2 2 2 2 0 1 3 3 3 3 2 3 7
12 6 3 1 2 4 4 7 8 9 11 10 9 7 7 7 9 12 10 6 5 5 4 2 1 1 2 2 2 3 3 3 2 1 2 2 3 3 4 4 4 6 6
11 9 4 2 2 1 3 1 10 8 13 13 10 9 5 6 11 18 18 16 15 15 3 3 2 2 3 3 1 2 2 2 2 1 2 1 2 3 4 5 4 5 6
11 11 9 5 3 2 3 5 7 7 13 17 16 14 13 8 14 18 20 17 17 15 3 3 3 4 4 3 3 2 2 2 0 1 2 2 2 3 4 4 4 5 6
12 13 7 7 4 4 4 6 5 7 9 8 16 14 16 15 14 18 19 15 8 10 3 4 5 4 4 4 4 2 2 1 0 1 3 2 1 3 3 3 3 6 5
12 9 10 8 4 3 4 6 6 7 7 5 3 11 14 17 17 19 20 5 8 7 6 4 4 5 5 4 4 3 3 3 2 2 3 3 2 2 4 4 4 5 6
9 14 14 10 7 4 4 7 7 8 8 7 7 7 7 10 9 11 11 11 7 5 6 6 5 5 6 5 4 4 3 3 2 2 2 3 3 4 3 4 4 4 5
9 10 13 11 8 5 4 8 8 7 7 7 6 7 15 10 11 11 12 11 10 9 7 7 6 6 6 6 5 5 4 3 3 3 3 3 5 5 4 5 5 6 6
8 11 10 10 8 6 5 7 8 8 7 7 6 8 20 10 10 11 12 11 10 9 7 7 6 7 8 9 8 7 6 5 4 4 4 4 5 5 4 5 6 6 6
8 10 12 9 9 9 10 7 9 8 7 7 8 8 9 10 9 11 9 8 8 8 6 7 7 6 6 7 7 8 9 9 7 6 7 6 6 7 7 7 7 7 7
9 10 13 10 9 9 8 9 10 10 8 7 10 10 9 9 10 12 9 6 7 7 7 8 8 10 9 8 7 6 5 5 6 7 8 8 7 7 6 7 5 6 8
9 9 8 9 8 8 7 8 9 7 7 9 10 9 9 9 9 9 9 8 7 7 8 8 8 12 14 14 12 11 9 12 10 9 5 7 9 10 8 8 9 6 6
9 10 10 11 9 9 8 7 8 9 9 10 10 9 9 9 9 9 8 9 9 8 9 8 10 14 15 12 13 14 14 14 12 12 8 8 9 7 8 9 12 9 9
Wind_Direction
177 175 170 176 172 163 177 178 180 171 179 178 181 178 185 196 205 212 235 254 244 268 259 274 277 276 275 275 274 269 274 273 285 295 295 300 301 294 292 288 281 273 266
173 173 183 170 169 177 185 182 173 184 179 178 180 181 187 197 204 211 231 240 254 262 285 293 275 287 283 282 276 278 279 282 277 288 298 307 303 302 290 289 289 277 265
159 169 177 183 178 188 187 180 178 175 176 180 179 187 193 198 203 214 223 238 258 260 298 278 275 285 288 287 279 282 282 290 280 287 296 299 295 301 301 291 289 281 268
177 183 191 192 191 190 185 180 179 177 172 180 187 190 192 196 203 210 214 242 263 269 272 261 274 277 281 293 287 277 295 296 289 287 288 297 301 307 298 300 317 308 319
183 191 207 194 190 183 180 179 172 171 180 178 179 190 191 197 204 206 206 238 243 272 266 275 281 284 288 286 289 298 283 283 287 293 303 306 311 320 316 317 308 307 308
191 207 195 181 181 188 181 174 170 177 179 176 186 186 190 204 212 214 211 219 226 256 273 269 286 293 291 310 301 299 299 289 302 305 320 311 313 316 313 308 311 326 338
206 205 190 186 187 187 175 172 180 185 173 185 185 179 199 201 209 216 225 214 200 238 247 283 294 300 300 293 292 305 298 303 315 316 313 318 313 325 317 310 345 6 1
200 199 195 186 188 177 172 182 179 171 183 183 184 188 184 216 213 215 224 205 208 236 233 240 257 291 285 293 295 300 294 278 311 328 323 322 324 328 327 321 312 319 287
203 210 200 188 182 177 184 181 178 167 168 172 173 185 197 220 213 215 214 184 219 250 241 262 243 274 296 309 306 296 294 286 335 358 346 347 358 350 0 332 340 15 349
221 219 196 186 185 186 184 177 155 166 180 172 191 200 198 214 214 213 210 172 211 246 273 272 286 283 304 317 305 302 306 301 332 354 345 346 7 1 10 8 334 336 323
273 188 184 187 189 180 168 162 159 164 144 173 189 192 207 211 223 218 217 185 199 217 232 272 266 310 312 315 315 303 299 338 338 9 333 331 14 16 15 9 5 360 355
253 184 183 178 175 163 161 152 157 157 165 180 189 212 219 218 221 224 218 219 201 182 228 226 258 299 326 318 314 314 317 339 360 32 19 359 1 20 12 22 22 19 31
310 292 211 163 167 164 161 161 159 168 177 186 193 211 222 206 215 218 219 222 216 200 205 234 278 342 345 343 323 324 358 26 63 54 27 341 322 336 355 25 25 16 43
330 319 322 157 134 162 168 168 168 174 180 186 194 209 212 187 203 205 206 209 222 215 208 98 197 75 2 17 344 332 337 30 111 143 224 290 322 353 23 28 10 9 43
340 325 310 305 193 165 191 187 194 197 190 189 202 190 179 203 216 200 188 189 187 185 116 61 69 58 46 19 328 333 346 18 48 360 52 43 18 4 21 23 35 50 69
340 341 296 250 211 180 185 233 225 211 197 198 175 180 192 206 194 198 199 202 193 174 96 168 186 164 181 156 231 303 331 5 354 46 56 60 78 59 46 45 49 66 83
341 326 320 257 180 178 210 214 219 231 215 212 207 206 209 199 214 196 191 193 190 179 173 190 188 179 187 185 180 217 213 268 244 78 82 36 42 87 92 71 80 83 88
317 296 303 286 223 179 220 230 219 214 212 214 218 213 218 214 212 190 184 182 187 195 177 193 189 178 192 184 165 186 209 246 109 118 86 50 38 63 43 61 74 97 81
305 320 322 304 280 218 214 235 227 228 230 210 141 210 206 208 205 205 192 164 189 202 197 213 190 168 189 178 172 161 190 190 208 148 114 112 72 79 106 85 63 70 92
317 314 307 300 302 277 231 236 228 228 233 223 202 203 180 180 191 197 199 204 192 199 190 192 189 177 173 171 166 154 165 170 171 181 136 127 112 101 95 96 96 87 71
311 302 300 294 279 273 246 247 239 219 227 233 221 205 194 194 198 204 204 209 198 201 195 186 175 179 173 161 154 161 167 184 174 178 146 142 135 121 113 100 94 92 100
295 287 286 285 292 287 258 246 240 230 207 227 231 209 211 211 207 210 209 205 208 197 177 175 173 182 175 170 170 167 168 180 179 167 145 133 128 122 117 117 113 112 113
286 283 281 275 290 285 283 257 249 235 227 202 228 212 197 214 213 218 214 204 190 192 163 165 160 171 166 161 169 169 172 183 182 167 157 151 146 141 140 134 135 129 132
273 275 274 277 273 265 261 267 243 229 222 210 225 216 201 205 210 218 208 187 186 192 171 171 173 169 165 160 166 166 152 146 151 167 157 154 145 131 125 124 119 120 126
269 266 284 292 291 291 302 300 259 235 226 220 224 218 205 201 206 212 197 192 183 180 181 174 169 170 167 163 166 164 162 160 153 144 138 141 145 142 141 136 135 121 119
269 268 263 263 267 267 266 278 286 290 226 222 218 212 204 198 203 205 195 187 183 183 176 178 173 171 159 161 161 157 160 158 152 147 143 147 147 143 141 140 139 138 141